Theta_e
356 361 367 367 365 364 363 364 365 365 365 363 362 362 361 361 363 363 362 363 362 364 361 362 360 359 360 360 357 355 354 352 351 352 352 352 352 354 355 356 353 348 350
359 363 366 365 365 363 363 363 363 364 364 364 364 363 362 362 363 362 363 364 363 363 361 362 360 358 356 355 353 352 350 350 349 350 352 353 353 357 358 358 357 351 351
361 364 366 363 364 363 362 362 362 362 363 364 364 363 362 362 362 363 363 363 363 361 360 361 360 358 355 352 349 348 348 347 347 349 350 349 350 354 355 359 359 357 353
364 367 365 362 364 362 361 361 361 362 362 363 363 363 363 363 363 363 362 361 361 360 360 360 359 356 353 350 347 345 345 344 344 346 345 348 348 355 356 358 361 360 357
364 366 366 362 362 362 360 360 361 361 361 361 361 362 362 362 362 361 361 361 360 360 360 359 358 356 352 348 345 344 342 341 342 344 340 341 344 348 352 360 359 359 358
361 362 364 364 362 363 360 360 360 359 359 360 360 361 361 361 360 360 361 361 361 359 359 358 357 355 351 348 345 344 341 341 343 337 339 340 341 349 344 349 358 360 358
359 361 364 364 361 363 360 360 359 360 360 359 360 359 359 360 360 360 360 360 360 359 359 358 356 354 352 349 346 344 342 343 341 338 338 339 340 344 345 349 363 359 351
359 361 363 364 364 363 362 361 360 360 360 360 359 359 359 360 359 360 360 360 360 360 359 358 356 354 351 348 345 344 344 345 340 339 339 341 351 357 355 362 358 352 355
361 361 363 362 364 362 362 361 360 360 359 359 358 358 359 359 359 359 360 360 359 359 358 358 355 352 350 347 346 346 346 345 342 340 341 346 354 359 358 356 357 355 353
361 360 361 362 361 362 360 361 360 360 359 359 358 358 358 358 358 359 357 358 358 358 358 356 354 352 350 350 349 348 347 347 343 342 343 350 351 355 356 356 354 352 349
359 360 361 360 361 361 360 360 360 359 359 359 358 358 356 352 353 354 355 357 358 357 357 356 355 354 352 350 349 348 346 342 342 343 344 348 355 358 356 354 352 349 345
348 359 360 361 360 360 357 360 359 359 359 358 357 357 354 354 354 352 355 357 357 357 357 356 356 355 353 347 345 345 340 341 343 345 345 347 358 357 353 352 350 346 344
325 355 359 362 362 360 356 359 358 358 358 358 358 357 356 354 353 352 352 353 355 355 352 352 352 352 349 348 344 343 342 344 346 348 347 349 358 356 352 350 347 345 342
317 331 354 361 362 360 357 359 358 355 353 354 354 357 354 351 351 349 351 351 353 351 350 350 346 350 351 348 345 343 344 344 346 349 350 357 355 355 350 349 346 344 341
317 321 326 342 357 361 356 360 359 357 353 353 352 355 354 350 349 347 347 349 350 349 349 347 346 346 346 346 345 343 342 346 349 349 351 357 354 354 350 348 346 343 339
318 320 323 330 353 361 360 361 358 358 356 354 351 352 355 352 348 346 345 350 349 350 349 348 345 344 343 344 345 346 344 346 348 349 351 355 353 351 351 349 346 343 339
317 320 326 329 344 358 360 360 359 356 356 353 352 356 356 354 350 348 348 348 349 350 351 349 347 346 346 346 346 345 347 349 350 349 350 352 352 348 349 348 346 344 339
319 320 324 320 331 354 357 358 357 357 357 355 356 355 356 356 354 348 347 348 349 350 348 347 346 346 346 347 347 347 348 350 352 350 348 347 349 342 347 347 346 342 338
320 321 321 323 323 343 353 354 357 358 356 356 356 355 356 356 355 351 350 347 349 347 347 345 346 347 345 348 348 348 350 350 352 348 346 346 343 344 342 342 344 341 336
322 322 322 321 326 337 343 352 354 353 352 354 353 353 355 355 355 354 352 350 348 345 344 345 345 347 346 347 344 346 350 351 351 348 344 344 344 341 341 338 340 339 334
322 323 323 320 326 331 346 345 349 347 350 351 351 354 353 353 352 352 351 351 349 343 343 347 345 345 345 347 345 343 339 337 337 336 340 336 333 335 336 336 336 337 331
320 323 323 322 322 327 337 348 350 349 350 350 352 354 354 353 353 351 350 350 350 347 345 341 345 340 343 347 341 344 333 329 325 324 325 327 328 330 331 332 332 330 330
319 322 322 324 321 324 338 347 350 350 349 348 348 348 350 351 352 352 350 349 349 349 345 345 340 341 338 345 347 342 333 329 325 320 318 322 322 325 324 324 324 323 323
316 320 323 325 322 323 335 340 346 342 340 340 341 341 344 348 348 350 349 347 349 348 348 346 347 345 348 342 340 336 333 334 325 314 316 317 319 318 319 318 318 318 318
317 318 322 326 327 326 333 340 342 341 337 337 338 342 345 347 348 346 348 345 345 346 344 344 347 345 344 333 332 325 325 326 328 318 311 311 311 313 312 315 316 316 316
317 317 320 323 326 329 332 339 342 341 335 334 337 336 337 338 341 345 345 346 345 342 342 344 346 345 346 345 340 331 327 324 323 321 316 310 310 311 310 312 314 314 314
Wind_Speed
5 10 11 11 10 8 6 10 13 14 15 16 16 15 15 15 15 16 16 15 14 13 12 9 9 8 7 6 5 4 4 4 4 5 6 6 7 7 7 7 6 7 5
10 10 12 13 11 11 9 8 12 13 14 14 14 15 14 14 14 14 14 14 13 12 11 9 8 6 5 5 4 3 3 3 3 4 5 6 7 8 7 8 8 2 6
11 13 14 15 12 11 10 9 9 12 13 14 14 13 13 13 13 13 12 12 12 12 11 9 8 6 5 4 3 2 2 2 3 4 5 7 6 9 10 10 10 8 7
8 10 13 15 12 11 11 10 9 10 11 13 13 13 12 12 12 12 11 11 11 12 11 9 7 5 4 3 3 2 2 2 3 4 7 6 7 8 11 10 10 8 8
9 10 9 12 12 11 11 11 10 10 11 12 13 12 12 11 10 10 10 10 11 11 10 8 7 5 3 3 3 2 2 2 3 7 7 7 6 4 7 10 11 10 8
10 9 11 9 9 9 10 11 10 11 10 11 12 12 12 11 10 9 9 9 10 10 9 8 6 5 4 3 3 3 3 3 5 6 6 7 8 5 8 11 13 6 4
6 7 9 9 9 10 11 12 12 12 11 11 11 12 12 10 10 9 9 9 9 9 9 8 6 5 4 3 3 3 4 4 7 5 6 6 8 7 12 10 9 6 1
3 5 7 8 8 8 9 11 11 11 12 12 12 12 12 12 10 10 9 9 8 7 7 7 6 4 4 4 4 5 5 5 6 6 6 5 4 9 8 8 7 4 7
1 5 6 7 8 8 8 8 9 10 10 11 11 12 12 12 11 10 9 8 7 6 6 5 4 4 4 5 5 5 6 6 9 4 6 4 3 2 8 7 8 9 10
1 4 6 6 7 7 8 9 9 10 10 10 10 11 11 11 11 10 8 8 8 8 7 6 5 5 5 6 6 6 7 9 8 6 4 2 4 5 7 9 10 11 11
3 5 6 7 7 7 7 7 9 10 10 10 11 11 9 9 11 12 10 7 10 9 8 7 7 6 6 8 7 7 8 5 6 4 3 4 7 7 8 10 11 11 12
7 6 7 7 8 8 6 8 8 8 9 9 9 10 9 9 8 8 8 11 11 10 9 9 9 8 8 6 5 6 5 5 5 5 5 5 8 9 9 10 10 11 12
10 8 8 9 9 9 7 6 5 5 6 7 10 10 9 7 6 7 6 7 9 11 8 9 9 8 7 5 5 5 6 6 4 4 5 9 10 11 10 11 10 12 11
10 12 9 9 9 10 6 7 7 6 7 7 8 11 8 7 7 7 6 7 8 7 8 8 6 8 8 8 7 7 7 6 4 4 4 11 11 10 11 12 11 11 10
11 12 12 9 12 11 11 8 8 8 7 8 8 10 9 8 7 7 7 7 8 8 7 8 8 8 8 8 7 8 8 7 6 4 4 12 10 10 11 11 11 10 9
12 13 13 12 12 11 12 12 9 8 9 9 8 9 13 9 6 6 7 9 9 8 8 8 8 8 7 7 8 8 8 7 6 7 6 8 11 11 10 12 10 9 9
12 12 11 11 11 13 14 12 10 8 8 8 8 12 13 13 9 8 7 9 8 7 9 8 8 8 8 7 9 8 7 8 7 9 8 7 9 10 9 9 9 9 8
13 12 13 10 11 13 13 11 10 9 8 8 8 8 13 13 13 8 7 8 8 7 8 8 8 7 7 7 7 7 6 6 6 7 8 6 6 4 7 7 7 8 8
15 14 15 12 13 13 12 10 10 10 9 8 8 9 11 13 13 11 9 6 7 8 8 9 8 8 7 7 7 6 5 5 5 5 7 6 4 5 5 6 5 7 7
15 14 13 12 11 12 9 8 7 7 9 8 9 9 11 10 12 11 10 10 8 6 8 9 10 8 9 7 6 4 2 0 1 3 5 6 6 6 5 2 5 7 8
17 17 14 13 12 8 7 7 8 8 10 8 10 11 10 9 10 11 10 10 10 8 10 11 10 10 9 8 6 4 4 4 4 3 2 3 2 3 5 4 4 5 8
18 17 17 14 12 10 10 8 6 6 5 6 5 7 8 9 10 10 12 11 13 11 11 10 11 10 9 8 8 6 5 4 3 4 3 3 5 4 6 5 7 6 5
21 20 18 16 12 10 12 6 4 3 2 4 4 4 6 9 10 12 13 12 12 12 11 11 8 11 11 9 12 6 5 7 6 2 6 4 2 7 6 7 8 7 6
21 20 19 17 11 9 11 9 9 6 1 3 4 5 6 10 11 11 11 11 10 8 11 11 10 10 11 10 4 5 2 2 4 5 4 5 4 7 5 6 6 6 5
20 20 18 17 13 7 9 10 10 7 5 3 4 7 8 9 10 9 9 10 10 8 8 10 11 11 11 6 5 3 4 3 3 3 5 5 4 3 4 5 4 4 4
20 21 19 19 15 11 5 9 12 11 9 7 9 7 7 6 6 8 8 8 9 8 9 9 11 13 11 10 10 7 6 6 7 5 4 6 7 5 3 3 3 3 3
Wind_Direction
156 149 146 141 139 138 147 145 125 126 130 136 140 145 146 143 138 140 144 146 150 149 149 140 136 137 137 132 131 114 99 109 130 149 157 173 182 189 200 204 198 206 167
152 156 150 147 140 148 156 133 125 127 129 133 137 140 143 142 140 144 148 147 153 150 151 148 146 146 141 138 132 113 113 128 156 188 191 191 204 211 217 224 214 198 201
162 156 155 153 147 152 145 135 127 132 132 134 135 138 140 142 143 147 145 148 155 157 160 162 160 157 150 141 122 113 131 169 196 223 225 226 211 209 229 230 225 230 222
150 162 155 156 148 150 146 142 136 138 137 137 136 140 142 144 147 148 149 157 161 168 171 172 170 167 153 136 134 155 174 211 240 247 228 231 233 193 234 237 231 232 227
130 146 141 153 153 154 152 150 150 148 146 144 143 145 148 148 148 151 163 166 172 177 180 181 179 184 171 161 163 175 199 220 240 245 241 238 243 221 254 248 235 227 227
139 146 141 143 154 153 159 158 159 155 156 153 153 155 155 156 157 161 172 176 179 186 188 191 195 195 202 192 198 212 227 234 252 247 248 242 254 277 267 259 237 231 235
134 150 158 150 167 168 169 169 169 168 165 163 160 163 161 161 163 169 180 184 188 194 198 201 202 206 214 230 238 253 256 264 266 248 257 257 259 264 258 264 175 188 241
143 160 164 162 169 174 180 178 179 176 174 173 170 169 167 167 172 179 187 193 199 203 209 213 212 227 243 256 262 264 272 281 257 273 267 270 314 283 222 164 154 156 105
113 190 188 193 188 187 189 191 188 184 183 181 179 179 176 175 176 184 190 196 205 215 221 229 230 246 264 273 273 275 282 281 280 265 277 268 72 118 134 140 129 113 109
274 223 209 211 213 220 205 197 201 195 188 186 189 188 187 182 183 188 195 201 210 214 227 237 249 255 270 274 274 273 280 276 263 273 256 252 241 182 149 137 123 121 119
228 241 225 215 218 225 233 215 206 211 208 197 196 197 188 207 199 197 206 189 214 219 227 239 248 253 263 263 274 286 293 273 277 263 254 158 224 182 152 136 135 129 117
301 227 222 227 227 214 221 230 215 220 215 212 209 206 211 209 213 223 218 209 219 225 228 238 244 254 250 262 260 243 260 275 272 261 248 200 204 179 160 146 148 133 131
303 280 242 214 218 227 221 225 216 223 219 220 218 214 211 216 213 221 223 219 224 217 237 221 231 236 247 258 262 266 265 264 264 260 240 204 194 184 165 160 158 147 140
294 275 254 242 227 221 213 219 226 209 219 222 220 219 217 213 213 224 233 225 230 225 231 235 240 245 252 253 258 263 258 259 254 258 219 200 192 181 174 175 166 156 152
273 269 268 255 232 227 217 219 225 224 210 219 221 221 217 217 217 229 230 238 237 229 227 234 240 246 251 252 255 256 258 259 264 244 225 196 189 179 184 180 172 165 160
299 277 277 266 243 225 228 224 218 220 222 219 219 222 215 212 206 202 229 237 241 236 237 243 243 251 253 260 259 253 254 260 256 230 211 196 186 182 190 184 181 177 175
301 291 270 271 260 235 221 223 224 226 218 226 224 225 228 214 204 204 224 235 240 242 248 245 250 246 254 254 256 251 252 255 241 220 211 212 184 183 198 197 182 200 190
310 299 283 269 251 240 232 222 217 224 225 224 229 226 229 230 226 213 223 235 233 228 241 242 241 240 247 250 251 254 256 252 237 219 209 197 195 198 184 206 186 208 204
319 311 298 279 252 229 233 241 230 213 224 231 224 222 227 228 231 231 231 230 224 234 235 238 238 240 243 246 246 254 242 238 227 206 194 201 184 203 194 148 186 188 188
325 317 305 289 260 242 228 216 225 224 226 226 232 233 234 234 235 234 244 234 222 218 241 236 236 237 249 254 255 216 241 221 214 192 185 183 204 201 193 156 170 156 152
341 331 322 299 264 234 196 202 216 220 222 217 228 230 231 238 237 234 241 241 232 223 218 228 228 229 241 237 213 182 114 83 75 63 75 111 151 145 185 144 171 161 120
347 336 326 309 274 233 221 211 210 216 224 232 231 224 227 241 241 240 242 240 234 231 226 228 220 223 232 222 229 229 206 160 101 53 50 98 107 125 115 131 121 125 136
358 347 336 319 284 237 232 201 173 144 177 181 197 202 212 225 235 234 240 244 247 239 238 228 218 217 231 217 221 238 228 228 149 106 59 60 89 110 108 111 110 109 103
357 355 350 341 315 247 209 203 197 181 154 296 205 186 195 220 228 230 239 244 240 240 243 235 225 219 215 206 208 214 348 1 181 171 130 99 74 96 103 111 110 93 80
0 360 355 358 349 286 211 195 179 165 152 218 220 206 215 223 229 232 237 246 240 233 240 240 222 210 215 191 169 187 150 170 176 172 151 152 109 117 108 99 100 81 64
8 360 355 0 9 349 258 198 177 195 142 185 215 221 226 233 246 244 251 247 250 235 232 233 243 225 223 224 206 187 178 174 184 167 138 154 169 134 109 100 93 70 40